www.pogodaiklimat.ru

Погода и климат >> Архив погоды >> Россия >> Магаданская область >> Остров Спафарьева


ПОГОДА на Остров Спафарьева

  • Прогноз погоды на Остров Спафарьева
  • Монитор погоды на Остров Спафарьева
  • Климат города

АРХИВ ПОГОДЫ на Остров Спафарьева

Время (UTC), дата Ветер
(напр.,м/с)
 
Видим.   Явления Облачность Т
(С)
Тd
(С)
f
(%)
Тe
(С)
Тes
(С)
Комфортность P
(гПа)
Po
(гПа)
Тmin
(С)
Tmax
(С)
R
(мм)
R24
(мм)
S
(см)
06 12.08 З 7-10
{10}
500 м туман ?/? +14.4 +14.2 99 +12 +12 1013.5 1007.3
09 12.08 З 4
{10}
500 м туман ?/? +14.5 +14.3 99 +13 +13 1013.1 1006.9 +16.1
12 12.08 З 6 500 м туман ?/? +13.7 +13.7 100 +11 +11 1012.9 1006.7
15 12.08 З 5 500 м туман ?/? +13.6 +13.6 100 +12 +12 1012.0 1005.8
18 12.08 З 5 500 м туман ?/? +13.9 +13.8 99 +12 +12 1011.5 1005.3
21 12.08 З 3 200 м слабая морось {туман} туман ?/? +13.5 +13.5 100 +12 +12 1011.3 1005.0 +13.2 0.4
00 13.08 СЗ 5 200 м туман {морось} ?/? +14.4 +14.4 100 +13 +13 1010.4 1004.2
03 13.08 СЗ 4 200 м туман ?/? +14.3 +14.3 100 +13 +13 1009.5 1003.3
06 13.08 З 5 200 м туман ?/? +14.4 +14.4 100 +13 +13 1008.0 1001.8
09 13.08 СЗ 4 50 м туман ?/? +14.1 +14.1 100 +13 +13 1008.4 1002.2 +14.8 0.3
12 13.08 З 2 50 м туман ?/? +14.2 +14.2 100 +14 +14 1008.0 1001.9
15 13.08 В 2 50 м туман ?/? +13.4 +13.4 100 +13 +13 1009.1 1002.9
18 13.08 В 4 200 м туман ?/? +14.4 +14.4 100 +13 +13 1009.8 1003.6
21 13.08 В 11-14
{14}
500 м слабый ливневой дождь {туман} туман ?/? +13.2 +13.0 99 +10 +10 1011.9 1005.7 +12.8 0.0
00 14.08 В 6
{14}
200 м слабый ливневой дождь {туман} туман ?/? +11.6 +11.6 100 +8 +8 1014.5 1008.2 +11.6
03 14.08 В 8-11
{11}
500 м слабый ливневой дождь {туман} туман ?/? +12.7 +12.5 99 +10 +10 1016.1 1009.9
06 14.08 В 8-11
{12}
2000 м слабый ливневой дождь {туман} туман 10/10 200 м
[Cb cap]
+12.7 +11.9 95 +10 +10 1017.6 1011.4
09 14.08 В 4
{11}
2000 м слабый ливневой дождь 10/10 200 м
[Cb cap]
+12.1 +11.6 97 +10 +10 1019.0 1012.7 +13.2 6
12 14.08 В 4 50 км {ливн. осадки} 10/10 300 м
[Cb cap]
+12.7 +10.8 88 +11 +11 1020.1 1013.8
15 14.08 СВ 2 50 км 10/10 600 м
[Cb cap]
+11.9 +10.8 93 +11 +11 1020.5 1014.2
18 14.08 штиль 0 50 км 9/9 600 м
[Sc]
+12.4 +10.1 86 +12 +12 1020.6 1014.3
21 14.08 штиль 0 50 км 6/5 600 м
[Sc Ac trans]
+14.3 +10.3 77 +14 +15 1021.3 1015.1 +11.1 0.0
00 15.08 штиль 0 50 км 1/0
[Ac trans]
+15.1 +9.7 70 +15 +26 опасность
простуды
1021.7 1015.4
03 15.08 СЗ 4 50 км 6/0
[Ci fib]
+14.6 +12.3 86 +13 +19 1021.1 1014.9
06 15.08 СЗ 6 50 км 1/0
[Ci fib]
+14.3 +11.6 84 +12 +14 1020.6 1014.3
09 15.08 СЗ 6 50 км 8/5 600 м
[Sc Ac trans]
+13.1 +11.5 90 +11 +11 1020.7 1014.4 +15.9
12 15.08 СЗ 5 50 км 8/5 600 м
[Sc Ac trans]
+12.8 +11.5 92 +11 +11 1021.6 1015.3
15 15.08 СЗ 6 50 км 8/8 600 м
[Sc]
+13.3 +10.8 85 +11 +11 1021.1 1014.8
18 15.08 штиль 0 50 км 8/8 600 м
[Sc Ac trans]
+13.3 +9.4 77 +13 +13 1021.5 1015.2
21 15.08 В 1 50 км 1/1 600 м
[Sc]
+13.9 +10.9 82 +14 +16 1022.0 1015.7 +12.1
00 16.08 З 3 50 км 1/1 300 м
[St]
+15.0 +13.2 89 +14 +21 1022.0 1015.7
03 16.08 СЗ 5 50 км 6/6 300 м
[St]
+15.1 +13.1 88 +14 +16 1021.6 1015.3
06 16.08 СЗ 5 50 км 6/6 300 м
[St]
+14.2 +12.8 91 +12 +13 1020.8 1014.5
09 16.08 СЗ 5 50 км 10/10 200 м
[St]
+11.8 +11.6 99 +9 +9 1020.0 1013.7 +15.5
12 16.08 СЗ 4 50 км 10/10 200 м
[St]
+12.2 +12.0 99 +10 +10 1019.9 1013.6
15 16.08 З 6 50 км 10/10 200 м
[St]
+12.7 +11.4 92 +10 +10 1019.5 1013.3
18 16.08 СЗ 5 50 км 10/10 200 м
[St]
+12.7 +11.5 92 +10 +10 1019.6 1013.3
21 16.08 З 6 50 км 10/10 300 м
[St]
+12.3 +10.6 89 +10 +10 1018.9 1012.6 +11.8
00 17.08 З 6 50 км 9/9 300 м
[St]
+12.8 +10.5 86 +10 +11 1018.3 1012.0
03 17.08 З 7-11
{11}
50 км 9/9 300 м
[St]
+13.5 +10.7 83 +11 +11 1017.3 1011.1
06 17.08 З 10-14
{15}
50 км 8/8 300 м
[St]
+14.2 +11.0 81 +11 +11 1015.9 1009.6
09 17.08 З 7-11
{13}
50 км 9/9 300 м
[St]
+12.7 +11.3 91 +10 +10 1015.2 1009.0 +14.5
12 17.08 З 9-12
{13}
50 км 9/9 300 м
[St]
+12.6 +11.2 91 +9 +9 1014.6 1008.4
15 17.08 З 10-13
{14}
50 км 9/9 300 м
[St]
+13.2 +11.6 90 +10 +10 1013.8 1007.6
18 17.08 З 9-12
{14}
50 км 10/10 300 м
[St]
+13.1 +11.7 91 +10 +10 1013.6 1007.4
21 17.08 З 9-12
{14}
50 км 8/8 300 м
[St]
+13.0 +12.1 94 +10 +10 1013.4 1007.2 +12.4
00 18.08 З 9-12
{13}
50 км 10/10 200 м
[St]
+13.7 +12.8 94 +11 +11 1013.4 1007.1
03 18.08 З 10-15
{15}
50 км 10/10 200 м
[St]
+13.8 +12.5 92 +11 +11 1012.7 1006.4
06 18.08 З 11-15
{16}
50 км 8/8 200 м
[St]
+14.6 +12.3 86 +12 +12 1011.9 1005.7
09 18.08 З 9-13
{15}
50 км 10/10 200 м
[St]
+13.4 +12.6 95 +10 +10 1012.4 1006.2 +14.6
12 18.08 З 7
{13}
50 км 10/10 200 м
[St]
+12.0 +11.6 97 +9 +9 1012.6 1006.3
15 18.08 З 9-13
{14}
50 км 10/10 200 м
[St]
+13.0 +12.1 94 +10 +10 1012.5 1006.3
18 18.08 З 6
{13}
50 км 10/10 200 м
[St]
+12.1 +11.8 98 +9 +9 1012.5 1006.2
21 18.08 З 7
{11}
50 км 10/10 200 м
[St]
+12.9 +12.7 99 +10 +10 1012.6 1006.3 +11.8
00 19.08 З 8-11
{11}
10 км слабый ливневой дождь 10/10 200 м
[Cb cap]
+12.7 +12.5 99 +10 +10 1012.6 1006.4

 

Местоположение метеостанции Остров Спафарьева (Магаданская область, Россия): широта 59.15 долгота 149.00 высота над уровнем моря 52 м.

В архиве по умолчанию представлена погода на Остров Спафарьева за последнюю неделю. Архивные данные за месяц целиком и за предыдущие месяцы, начиная с января 2011 года, Вы можете получить, выбрав интересующий диапазон дат из раскрывающегося списка и нажав кнопку "Ввод!".

Внимание! Время в таблицах - всемирное. Для получения местного времени необходимо прибавить поправку, которая на Остров Спафарьева равна 11 ч.

Смотрите также архив погоды в соседних городах и на ближайших метеорологических станциях:

Погода в Талоне (Магаданская область, Россия) (72 км)
Погода в Армани (Магаданская область, Россия) (84 км)
Погода в Магадане (Магаданская область, Россия) (106 км)
Погода в Оле (Магаданская область, Россия) (133 км)
Погода на Мысе Алевина (Магаданская область, Россия) (137 км)
Погода в Палатке (Магаданская область, Россия) (150 км)
Погода в Мадауне (Магаданская область, Россия) (187 км)
Погода в Усть-Омчуге (Магаданская область, Россия) (222 км)
Погода на Мысе Братьев (Магаданская область, Россия) (245 км)
Погода в Талае (Магаданская область, Россия) (286 км)

Пояснения к столбцам:

Ветер - указаны скорость ветра в м/с - средняя за 10 мин, порывы в срок и между сроками (в фигурных скобках) и направление, откуда дует ветер: С - северный, СВ - северо-восточный, В - восточный, ЮВ - юго-восточный, Ю - южный, ЮЗ - юго-западный, З - западный, СЗ - северо-западный.
Видимость - горизонтальная дальность видимости в метрах или километрах. При видимости от 1 до 10 км при отсутствии осадков обычно наблюдается дымка, при ухудшении видимости до 1 км и менее - туман. В сухую погоду видимость может ухудшаться дымом, пылью или мглою.
Явления - указаны атмосферные явления, наблюдавшиеся в срок или в последний час перед сроком; фигурными скобками обозначены явления, наблюдавшиеся между сроками (за 1-3 часа до срока); квадратными скобками обозначены град или гололедные отложения с указанием их диаметра в мм.
Облачность - указаны через наклонную черту общая и нижняя облачность в баллах и высота нижней границы облаков в метрах; квадратными скобками обозначены формы облаков: Ci - перистые, Cs - перисто-слоистые, Cc - перисто-кучевые, Ac - высококучевые, As - высокослоистые, Sc - слоисто-кучевые, Ns - слоисто-дождевые, Cu - кучевые, Cb - кучево-дождевые. Подробнее классификацию облаков см. в Атласе облаков (PDF).
T - Температура воздуха - температура, измеренная на высоте 2 м над землей.
Td - Температура точки росы - температура, при понижении до которой содержащийся в воздухе водяной пар достигнет насыщения.
f - Относительная влажность воздуха - влажноcть воздуха, измеренная на высоте 2 м над землей.
Te - Эффективная температура - температура, которую ощущает одетый по сезону человек в тени. Характеристика душности погоды. При расчете учитывается влияние влажности воздуха и скорости ветра на теплоощущения человека.
Tes - Эффективная температура на солнце - температура, которую ощущает человек, с поправкой на солнечный нагрев. Характеристика знойности погоды. Зависит от высоты солнца над горизонтом, облачности и скорости ветра. Ночью, в пасмурную погоду, а также при ветре 12 м/с и более поправка равна нулю.
P - Атмосферное давление - приведенное к уровню моря атмосферное давление.
Po - Атмосферное давление - измеренное на уровне метеостанции атмосферное давление.
Tmin - Минимальная температура - минимум температуры воздуха на высоте 2 м над землей.
Tmax - Максимальная температура - максимум температуры воздуха на высоте 2 м над землей.
R - Количество осадков - Количество выпавших осадков за период времени, мм. При наведении курсора мыши на число - период времени, за который выпало указанное количество осадков.
R24 - Количество осадков - Количество выпавших осадков за 24 часа, мм.
S - Снежный покров - Высота снежного покрова, см. При наведении курсора мыши на число - состояние снежного покрова и степень покрытия местности в баллах.